sat.trackr.live / text

‹ back to catalog

ORS-5 SENSORSAT

NORAD 42921 · 2017-050A

PAYLOAD ACTIVE UNKNOWN

§ Identity

Operator
Country
US
Launch date
2017-08-26
Launch site
AFETR
Launch vehicle
Mass (kg)
RCS (m²)

External: N2YO · Heavens-Above · Gunter

§ Orbital elements

Epoch: 2026-09-14T21:09:43.796160Z

Period
95.93 min
Inclination
0.0476°
Eccentricity
0.0010382
Mean motion
15.01152128 rev/d
Perigee alt
556.1 km
Apogee alt
570.5 km
Semi-major
6,941.5 km
B*
1.1711e-4
RAAN
197.0812°
Arg perigee
320.8099°
Mean anomaly
202.1537°
Rev number
49,452

§ Raw data

ORS-5 SENSORSAT1 42921U 17050A   26257.88175690  .00002381  00000+0  11711-3 0  99942 42921   0.0476 197.0812 0010382 320.8099 202.1537 15.01152128494520

JSON: /api/v1/satellites/42921 · /tle

For live sub-satellite position, see the globe view (requires WebGL).

§ Visibility from observer

Set your observer location to see the next 7 days of passes ≥ 10°. The values pass through the URL so the page stays shareable.

No JS? Fill the form by hand. The geolocation button needs JavaScript.